Weather History for Bar Harbor, ME

Change the Weather History Date:

Saturday, October 1, 2011

  Actual Average Record
Temperature  
Mean Temperature 58 °F -  
Max Temperature 62 °F 63 °F 78 °F (1954)
Min Temperature 53 °F 45 °F 33 °F (1965)
Degree Days  
Heating Degree Days 8    
Growing Degree Days 8 (Base 50)    
Moisture  
Dew Point 55 °F    
Average Humidity 88    
Maximum Humidity 94    
Minimum Humidity 82    
Precipitation  
Precipitation 0.51 in - - ()
Sea Level Pressure  
Sea Level Pressure 29.73 in    
Wind  
Wind Speed 5 mph (NE)    
Max Wind Speed 14 mph    
Max Gust Speed 21 mph    
Visibility 5 miles    
Events      
Averages and records for this station are not official NWS values.
T = Trace of Precipitation, MM = Missing Value Source: NWS Daily Summary

Daily Weather History Graph

Daily Weather History Graph

Search for Another Location

Airport:

Trip Planner

Search our weather history database for the weather conditions in past years. The results will help you decide how hot, cold, wet, or windy it might be!

Date:

Astronomy

Oct. 01, 2011 Rise Set
Actual Time 6:30 AM EDT 6:14 PM EDT
Civil Twilight 6:01 AM EDT 6:43 PM EDT
Nautical Twilight 5:28 AM EDT 7:17 PM EDT
Astronomical Twilight 4:53 AM EDT 7:51 PM EDT
Moon 11:46 AM EDT (10/1) 8:54 PM EDT (10/1)
Length of Visible Light 12h 41m
Length of Day
11h 43m
Waxing Crescent, 24% of the Moon is Illuminated
Oct 1
Waxing Crescent
Oct 3
First Quarter
Oct 11
Full
Oct 19
Last Quarter
Oct 26
New

Hourly Weather History & Observations

Time (EDT) Temp. Dew Point Humidity Pressure Visibility Wind Dir Wind Speed Gust Speed Precip Events Conditions
12:15 AM 55.4 °F 53.6 °F 94% 29.74 in 4.0 mi Calm Calm - N/A   Clear
12:35 AM 55.4 °F 53.6 °F 94% 29.73 in 3.0 mi North 3.5 mph - N/A   Clear
1:15 AM 55.4 °F 53.6 °F 94% 29.74 in 5.0 mi Calm Calm - N/A   Clear
1:35 AM 55.4 °F 53.6 °F 94% 29.75 in 5.0 mi Calm Calm - N/A   Clear
1:55 AM 55.4 °F 53.6 °F 94% 29.75 in 5.0 mi North 4.6 mph - N/A   Clear
2:15 AM 55.4 °F 51.8 °F 88% 29.73 in 4.0 mi NE 3.5 mph - N/A   Clear
2:35 AM 57.2 °F 53.6 °F 88% 29.72 in 6.0 mi East 4.6 mph - N/A   Scattered Clouds
2:55 AM 57.2 °F 55.4 °F 94% 29.73 in 6.0 mi North 4.6 mph - N/A   Mostly Cloudy
3:15 AM 57.2 °F 53.6 °F 88% 29.74 in 6.0 mi NNE 4.6 mph - N/A   Mostly Cloudy
3:35 AM 55.4 °F 53.6 °F 94% 29.72 in 5.0 mi NNE 6.9 mph - N/A   Mostly Cloudy
3:55 AM 55.4 °F 53.6 °F 94% 29.73 in 6.0 mi NNE 5.8 mph - N/A   Scattered Clouds
4:15 AM 55.4 °F 53.6 °F 94% 29.73 in 7.0 mi NNE 5.8 mph - N/A   Partly Cloudy
4:35 AM 55.4 °F 53.6 °F 94% 29.72 in 7.0 mi North 5.8 mph - N/A   Partly Cloudy
5:15 AM 55.4 °F 53.6 °F 94% 29.71 in 5.0 mi North 5.8 mph - N/A   Overcast
5:35 AM 55.4 °F 53.6 °F 94% 29.71 in 5.0 mi NE 4.6 mph - N/A   Overcast
5:55 AM 57.2 °F 53.6 °F 88% 29.71 in 0.5 mi NE 5.8 mph - N/A   Overcast
6:15 AM 57.2 °F 55.4 °F 94% 29.71 in 1.0 mi NNE 5.8 mph - N/A   Overcast
6:35 AM 57.2 °F 53.6 °F 88% 29.71 in 4.0 mi NNE 6.9 mph - N/A   Overcast
6:55 AM 57.2 °F 53.6 °F 88% 29.71 in 3.0 mi NE 4.6 mph - N/A   Overcast
7:15 AM 57.2 °F 55.4 °F 94% 29.71 in 1.0 mi NE 4.6 mph - N/A   Overcast
7:35 AM 57.2 °F 53.6 °F 88% 29.71 in 0.5 mi ENE 4.6 mph - N/A   Overcast
7:55 AM 57.2 °F 55.4 °F 94% 29.71 in 0.2 mi East 6.9 mph - N/A   Overcast
8:15 AM 57.2 °F 55.4 °F 94% 29.72 in 0.2 mi East 4.6 mph - N/A   Overcast
8:35 AM 59.0 °F 55.4 °F 88% 29.71 in 0.2 mi East 4.6 mph - N/A   Overcast
8:55 AM 59.0 °F 55.4 °F 88% 29.70 in 0.2 mi ENE 6.9 mph - N/A   Overcast
9:15 AM 59.0 °F 55.4 °F 88% 29.70 in 0.5 mi ENE 5.8 mph - N/A   Overcast
9:35 AM 59.0 °F 55.4 °F 88% 29.70 in 0.8 mi ENE 5.8 mph - N/A   Overcast
9:55 AM 60.8 °F 55.4 °F 82% 29.70 in 0.8 mi East 4.6 mph - N/A   Overcast
10:15 AM 60.8 °F 55.4 °F 82% 29.69 in 0.8 mi ENE 4.6 mph - N/A   Overcast
10:35 AM 60.8 °F 55.4 °F 82% 29.69 in 0.5 mi ENE 5.8 mph - N/A   Overcast
11:15 AM 60.8 °F 57.2 °F 88% 29.69 in 3.0 mi East 4.6 mph - 0.01 in   Overcast
11:35 AM 60.8 °F 57.2 °F 88% 29.69 in 5.0 mi East 6.9 mph - 0.07 in   Overcast
11:55 AM 60.8 °F 57.2 °F 88% 29.69 in 3.0 mi ESE 5.8 mph - 0.13 in   Overcast
12:15 PM 60.8 °F 57.2 °F 88% 29.70 in 2.0 mi ESE 4.6 mph - 0.16 in   Overcast
12:35 PM 60.8 °F 57.2 °F 88% 29.69 in 5.0 mi ESE 5.8 mph - 0.34 in   Overcast
12:55 PM 60.8 °F 57.2 °F 88% 29.69 in 5.0 mi East 4.6 mph - 0.35 in   Overcast
1:15 PM 60.8 °F 57.2 °F 88% 29.66 in 9.0 mi NE 6.9 mph - N/A   Overcast
1:35 PM 60.8 °F 57.2 °F 88% 29.60 in 10.0 mi ENE 13.8 mph 20.7 mph N/A   Overcast
2:15 PM 62.6 °F 57.2 °F 82% 29.69 in 10.0 mi SSE 4.6 mph - N/A   Overcast
2:35 PM 62.6 °F 57.2 °F 82% 29.69 in 10.0 mi ESE 4.6 mph - N/A   Overcast
2:55 PM 62.6 °F 57.2 °F 82% 29.69 in 10.0 mi East 5.8 mph - N/A   Overcast
3:15 PM 62.6 °F 57.2 °F 82% 29.69 in 7.0 mi East 5.8 mph - N/A   Overcast
3:35 PM 60.8 °F 57.2 °F 88% 29.69 in 2.0 mi East 6.9 mph - N/A   Overcast
3:55 PM 60.8 °F 57.2 °F 88% 29.70 in 1.5 mi ENE 4.6 mph - N/A   Overcast
4:15 PM 62.6 °F 57.2 °F 82% 29.70 in 1.8 mi NE 5.8 mph - N/A   Overcast
4:35 PM 62.6 °F 57.2 °F 82% 29.70 in 10.0 mi NE 8.1 mph - N/A   Overcast
4:55 PM 60.8 °F 57.2 °F 88% 29.71 in 10.0 mi NE 8.1 mph - N/A   Overcast
5:15 PM 60.8 °F 57.2 °F 88% 29.72 in 9.0 mi NE 9.2 mph - 0.01 in   Overcast
5:35 PM 60.8 °F 57.2 °F 88% 29.72 in 10.0 mi NNE 9.2 mph - 0.01 in   Overcast
5:55 PM 60.8 °F 57.2 °F 88% 29.73 in 10.0 mi NE 8.1 mph - 0.01 in   Overcast
6:15 PM 60.8 °F 57.2 °F 88% 29.74 in 7.0 mi NE 10.4 mph - N/A   Overcast
6:35 PM 59.0 °F 55.4 °F 88% 29.76 in 3.0 mi NNE 8.1 mph - 0.02 in   Overcast
6:55 PM 57.2 °F 53.6 °F 88% 29.77 in 5.0 mi NNE 12.7 mph - 0.02 in   Overcast
7:15 PM 57.2 °F 53.6 °F 88% 29.78 in 5.0 mi NNE 10.4 mph - N/A   Overcast
7:35 PM 57.2 °F 53.6 °F 88% 29.79 in 6.0 mi NNE 9.2 mph - N/A   Overcast
8:15 PM 55.4 °F 51.8 °F 88% 29.80 in 10.0 mi NNE 11.5 mph - N/A   Overcast
8:35 PM 55.4 °F 50.0 °F 82% 29.81 in 10.0 mi NNE 13.8 mph - N/A   Overcast
8:55 PM 55.4 °F 50.0 °F 82% 29.82 in 10.0 mi NNE 10.4 mph - N/A   Overcast
9:15 PM 53.6 °F 50.0 °F 88% 29.83 in 10.0 mi NNE 10.4 mph - N/A   Overcast
9:35 PM 53.6 °F 50.0 °F 88% 29.84 in 10.0 mi NNE 11.5 mph - N/A   Overcast
9:55 PM 53.6 °F 50.0 °F 88% 29.84 in 10.0 mi NNE 9.2 mph - N/A   Overcast
10:15 PM 53.6 °F 50.0 °F 88% 29.85 in 9.0 mi NNE 10.4 mph - N/A   Overcast
10:35 PM 53.6 °F 50.0 °F 88% 29.85 in 5.0 mi NNE 11.5 mph - N/A   Overcast
10:55 PM 53.6 °F 50.0 °F 88% 29.85 in 4.0 mi NNE 10.4 mph - N/A   Overcast
11:15 PM 53.6 °F 50.0 °F 88% 29.86 in 4.0 mi NNE 9.2 mph - N/A   Overcast
11:35 PM 53.6 °F 50.0 °F 88% 29.86 in 4.0 mi NNE 9.2 mph - N/A   Overcast
11:55 PM 53.6 °F 51.8 °F 94% 29.87 in 5.0 mi NNE 10.4 mph - N/A   Overcast